DateTimeUTC,F1_A11,F1_S11,BsB_S11,BsG_S11,BsR_S11,BbsB_S11,BbsG_S11,BbsR_S11,BaB_A11,BaG_A11,BaR_A11,Tu_S11,T_S11,Uu_S11,U_S11,P_S11,T1_A11
2021-10-08T16:00:00Z,00000200,21000000,,,,,,,0000.23,0000.18,0000.26,16.7,23.6,01.2,00.8,0671.4,30.9
2021-10-08T16:01:00Z,00000200,21000000,,,,,,,0000.06,0000.23,0000.16,16.7,23.6,01.2,00.8,0671.4,30.9
2021-10-08T16:02:00Z,00000200,21000000,,,,,,,0000.07,-000.31,0000.09,16.8,23.6,01.2,00.8,0671.4,30.9
2021-10-08T16:03:00Z,00000200,61000000,,,,,,,0000.53,0000.65,0000.19,16.8,23.6,01.2,00.8,0671.4,30.9
2021-10-08T16:04:00Z,00000200,41000000,0000.62,0000.46,0000.11,-000.49,0000.06,0000.15,-000.16,-000.37,-000.32,17.2,23.6,01.4,01.0,0672.4,30.9
2021-10-08T16:05:00Z,00000200,01000000,0001.43,0000.55,0000.60,0000.59,0000.03,0000.42,-000.45,0000.10,-000.41,17.2,23.5,01.4,00.9,0672.4,30.9
2021-10-08T16:06:00Z,00000200,01000000,0000.69,0000.59,0000.33,-000.17,0000.19,0000.19,0000.34,-000.10,0000.04,17.1,23.5,01.4,00.9,0672.4,30.9
2021-10-08T16:07:00Z,00000200,01000000,0000.47,0000.57,0000.38,0000.40,0000.00,0000.11,0000.36,0000.14,0000.42,17.1,23.5,01.3,00.9,0672.4,30.9
2021-10-08T16:08:00Z,00000200,01000000,0001.59,0000.32,0000.00,0000.80,0000.08,-000.10,-000.41,-000.05,-000.06,17.0,23.4,01.4,00.9,0672.4,30.9
2021-10-08T16:09:00Z,00000200,01000000,0000.85,0000.62,0000.22,0000.06,0000.03,-000.07,0000.46,0000.31,0000.11,17.0,23.4,01.4,00.9,0672.4,30.9
2021-10-08T16:10:00Z,00000200,01000000,0000.60,0000.25,0000.38,0000.51,-000.16,0000.15,-000.02,0000.03,-000.11,16.9,23.4,01.4,00.9,0672.4,30.9
2021-10-08T16:11:00Z,00000200,01000000,0000.73,0000.40,0000.52,0000.67,0000.09,0000.20,0000.09,0000.09,0000.14,16.9,23.4,01.3,00.9,0672.4,30.8
2021-10-08T16:12:00Z,00000200,01000000,0001.45,0000.56,0000.34,0000.54,0000.03,0000.01,0000.36,0000.21,0000.47,16.9,23.3,01.3,00.9,0672.4,30.8
2021-10-08T16:13:00Z,00000200,01000000,0000.91,0000.34,0000.26,0000.32,0000.23,0000.04,-000.03,-000.22,-000.16,16.8,23.3,01.4,00.9,0672.4,30.8
2021-10-08T16:14:00Z,00000200,01000000,0000.18,0000.65,0000.24,0000.49,0000.31,0000.22,0000.49,0000.95,0000.16,16.9,23.3,01.3,00.9,0672.4,30.8
2021-10-08T16:15:00Z,00000200,01000000,0000.97,0000.30,0000.32,0000.21,0000.13,0000.13,0000.52,0000.44,0000.99,16.9,23.3,01.4,00.9,0672.4,30.9
2021-10-08T16:16:00Z,00000200,01000000,0001.22,0000.36,0000.48,0000.82,-000.05,0000.04,0000.41,0000.32,0000.11,17.0,23.4,01.3,00.9,0672.4,30.9
2021-10-08T16:17:00Z,00000200,01000000,0000.87,0000.12,0000.34,0000.05,0000.11,0000.36,0000.40,0000.28,0000.12,17.2,23.4,01.4,00.9,0672.4,30.9
2021-10-08T16:18:00Z,00000200,01000000,0001.20,0000.34,0000.46,0000.55,0000.06,0000.17,-000.16,-000.10,-000.17,17.3,23.5,01.4,01.0,0672.4,30.9
2021-10-08T16:19:00Z,00000200,01000000,0000.80,0000.17,0000.19,0000.06,-000.07,-000.02,0000.32,0000.37,0000.39,17.3,23.5,01.4,01.0,0672.4,30.9
2021-10-08T16:20:00Z,00000200,01000000,0001.40,0000.37,0000.45,0001.35,-000.15,0000.00,0000.20,-000.10,0000.01,17.4,23.5,01.4,01.0,0672.4,30.9
2021-10-08T16:21:00Z,00000200,01000000,0000.92,0000.38,0000.13,0000.65,0000.07,0000.15,-000.29,-000.20,0000.05,17.3,23.5,01.3,00.9,0672.4,30.9
2021-10-08T16:22:00Z,00000200,01000000,0001.26,0000.55,0000.21,-000.08,-000.12,0000.01,0000.18,0000.09,-000.27,17.3,23.5,01.4,00.9,0672.5,30.9
2021-10-08T16:23:00Z,00000200,01000000,0001.53,0000.38,0000.47,0000.49,-000.15,0000.21,0000.13,0000.27,0000.31,17.2,23.5,01.3,00.9,0672.5,30.9
2021-10-08T16:24:00Z,00000200,01000000,0000.79,0000.44,0000.45,0000.89,-000.04,0000.09,-000.37,-000.59,-000.44,17.2,23.5,01.3,00.9,0672.4,30.9
2021-10-08T16:25:00Z,00000200,01000000,0001.16,0000.66,0000.54,0000.72,-000.15,0000.09,0000.04,0000.12,-000.03,17.1,23.5,01.2,00.8,0672.4,30.9
2021-10-08T16:26:00Z,00000200,01000000,0000.12,0000.27,0000.60,0000.34,-000.00,0000.40,0000.35,-000.02,0000.02,17.1,23.4,01.1,00.8,0672.4,30.9
2021-10-08T16:27:00Z,00000200,01000000,0000.82,0000.27,0000.09,0000.85,0000.05,0000.23,-000.08,0000.45,0000.34,17.0,23.4,01.1,00.8,0672.4,30.9
2021-10-08T16:28:00Z,00000200,01000000,0001.19,0000.62,0000.61,0001.13,0000.03,0000.09,0000.52,0000.19,0000.32,17.0,23.4,01.2,00.8,0672.4,30.8
2021-10-08T16:29:00Z,00000200,01000000,0001.17,0000.71,0000.32,0000.86,0000.46,0000.19,0000.67,0000.59,0000.55,17.0,23.4,01.2,00.8,0672.3,30.9
2021-10-08T16:30:00Z,00000200,01000000,0001.62,0000.34,0000.62,0000.27,0000.28,0000.07,0000.13,0000.58,0000.19,17.1,23.4,01.3,00.9,0672.3,30.9
2021-10-08T16:31:00Z,00000200,01000000,0001.17,0000.54,0000.48,0000.95,-000.04,0000.08,0000.38,0000.35,0000.48,17.2,23.4,01.2,00.8,0672.3,30.9
2021-10-08T16:32:00Z,00000200,01000000,0001.07,0000.48,0000.32,-000.01,0000.22,0000.20,0000.49,0000.41,0000.11,17.3,23.5,01.2,00.9,0672.3,30.9
2021-10-08T16:33:00Z,00000200,01000000,0000.47,0000.40,0000.32,0000.63,-000.09,0000.02,-000.13,-000.32,-000.15,17.4,23.6,01.2,00.8,0672.3,30.9
2021-10-08T16:34:00Z,00000200,01000000,0000.63,0000.29,-000.02,0000.37,0000.24,0000.12,-000.06,0000.41,0000.14,17.4,23.6,01.2,00.8,0672.3,30.9
2021-10-08T16:35:00Z,00000200,01000000,0000.41,0000.50,0000.58,0000.23,0000.05,0000.15,0000.13,-000.67,-000.23,17.5,23.6,01.2,00.8,0672.3,30.9
2021-10-08T16:36:00Z,00000200,01000000,0000.96,0000.53,0000.53,0000.74,0000.16,0000.32,0000.01,0000.19,-000.17,17.4,23.6,01.1,00.8,0672.3,30.9
2021-10-08T16:37:00Z,00000200,01000000,0001.65,0000.27,0000.36,0000.55,0000.15,0000.22,-000.07,0000.08,-000.40,17.3,23.6,01.1,00.8,0672.3,30.9
2021-10-08T16:38:00Z,00000200,01000000,0001.22,0000.70,0000.48,-000.20,-000.01,0000.42,-000.06,0000.08,0000.56,17.3,23.6,01.1,00.7,0672.2,30.9
2021-10-08T16:39:00Z,00000200,01000000,0000.44,0000.65,0000.63,0000.05,-000.19,-000.12,-000.09,-000.27,-000.08,17.3,23.5,01.1,00.7,0672.2,30.9
2021-10-08T16:40:00Z,00000200,01000000,0001.58,0000.34,0000.33,-000.05,-000.10,0000.01,0000.37,0000.06,-000.20,17.2,23.5,01.0,00.7,0672.2,30.9
2021-10-08T16:41:00Z,00000200,01000000,0001.25,0000.41,0000.44,0001.23,0000.13,0000.14,0000.00,0000.30,0000.13,17.2,23.5,00.9,00.6,0672.2,30.9
2021-10-08T16:42:00Z,00000200,01000000,0001.11,0000.59,0000.16,0000.36,-000.22,-000.04,-000.21,-000.30,0000.25,17.1,23.5,00.9,00.6,0672.2,30.9
2021-10-08T16:43:00Z,00000200,01000000,0000.89,0000.72,0000.30,0000.58,-000.17,0000.12,0000.59,0000.66,0000.15,17.1,23.4,00.9,00.6,0672.2,30.9
2021-10-08T16:44:00Z,00000200,01000000,0001.27,0000.54,0000.07,-000.63,-000.02,0000.30,0000.20,0000.38,0000.69,17.1,23.5,00.9,00.6,0672.2,30.9
2021-10-08T16:45:00Z,00000200,01000000,0000.97,0000.18,0000.23,0000.22,-000.04,0000.05,0000.48,0000.22,0000.02,17.2,23.5,00.8,00.6,0672.2,30.9
2021-10-08T16:46:00Z,00000200,01000000,0000.78,0000.47,0000.27,0000.29,0000.26,0000.21,-000.01,0000.07,-000.36,17.3,23.5,00.8,00.5,0672.3,30.9
2021-10-08T16:47:00Z,00000200,01000000,0000.78,0000.06,0000.03,-000.41,-000.13,-000.14,0000.11,0000.27,0000.69,17.4,23.5,00.8,00.6,0672.3,30.9
2021-10-08T16:48:00Z,00000200,01000000,0000.53,0000.50,0000.31,0000.23,0000.13,0000.20,-000.02,-000.13,0000.00,17.5,23.6,00.7,00.5,0672.3,30.9
2021-10-08T16:49:00Z,00000200,01000000,0001.00,0000.10,0000.09,0000.35,-000.01,-000.05,0000.27,0000.01,-000.36,17.5,23.6,00.7,00.5,0672.3,30.9
2021-10-08T16:50:00Z,00000200,01000000,0001.16,0000.02,0000.37,0000.91,0000.43,-000.10,-000.22,0000.05,-000.10,17.6,23.7,00.7,00.5,0672.3,30.9
2021-10-08T16:51:00Z,00000200,01000000,0001.01,0000.26,0000.19,0000.36,-000.09,0000.27,-000.09,-000.44,0000.09,17.5,23.7,00.6,00.4,0672.3,30.9
2021-10-08T16:52:00Z,00000200,01000000,0001.02,0000.35,0000.22,0001.37,0000.17,0000.08,-000.01,0000.32,-000.06,17.5,23.6,00.6,00.4,0672.3,30.9
2021-10-08T16:53:00Z,00000200,01000000,0000.97,0000.28,0000.32,0000.77,0000.01,0000.09,-000.14,-000.14,-000.23,17.4,23.6,00.6,00.4,0672.3,30.9
2021-10-08T16:54:00Z,00000200,01000000,0000.39,0000.42,0000.35,0000.33,0000.00,0000.04,0000.49,0000.54,0000.66,17.4,23.6,00.5,00.4,0672.3,30.9
2021-10-08T16:55:00Z,00000200,01000000,0000.54,0000.63,-000.08,0000.30,0000.03,0000.15,0000.54,-000.03,-000.05,17.3,23.6,00.7,00.4,0672.3,30.9
2021-10-08T16:56:00Z,00000200,01000000,0000.91,0000.23,-000.02,0000.04,-000.11,0000.06,-000.18,0000.26,0000.10,17.3,23.6,00.7,00.4,0672.3,30.9
2021-10-08T16:57:00Z,00000200,41000000,,,,,,,0000.67,0000.42,0000.18,17.3,23.6,00.6,00.4,0672.4,30.9
2021-10-08T16:58:00Z,00000200,61000000,,,,,,,-000.32,0000.29,0000.35,16.9,23.6,00.7,00.5,0671.4,30.9
2021-10-08T16:59:00Z,00000200,21000000,,,,,,,-000.16,-000.44,-000.19,16.9,23.7,00.6,00.4,0671.3,30.9
